timestamp,wind_dir_avg,wind_spd_max_dir,wind_spd_avg,wind_spd_gust,battery_voltage,lat,long
2019-02-19 00:00:00+00:00,283.0,287.0,7.24,8.45,,47.59359,-54.27349
2019-02-19 00:10:00+00:00,296.0,289.0,7.24,8.42,,47.59359,-54.27349
2019-02-19 00:20:00+00:00,288.0,292.0,6.04,7.63,,47.59359,-54.27349
2019-02-19 00:30:00+00:00,304.0,307.0,8.23,9.29,,47.59359,-54.27349
2019-02-19 00:40:00+00:00,311.0,306.0,7.44,9.14,,47.59359,-54.27349
2019-02-19 00:50:00+00:00,305.0,298.0,6.48,8.02,,47.59359,-54.27349
2019-02-19 01:00:00+00:00,325.0,325.0,6.28,7.35,,47.59359,-54.27349
2019-02-19 01:10:00+00:00,302.0,304.0,6.17,6.87,,47.59359,-54.27349
2019-02-19 01:20:00+00:00,316.0,313.0,5.24,7.03,,47.59359,-54.27349
2019-02-19 01:30:00+00:00,336.0,333.0,4.95,5.83,,47.59359,-54.27349
2019-02-19 01:40:00+00:00,310.0,309.0,5.02,5.8,,47.59359,-54.27349
2019-02-19 01:50:00+00:00,311.0,311.0,5.56,6.39,,47.59359,-54.27349
2019-02-19 02:00:00+00:00,338.0,337.0,4.69,5.57,,47.59359,-54.27349
2019-02-19 02:10:00+00:00,310.0,314.0,4.88,6.08,,47.59359,-54.27349
2019-02-19 02:20:00+00:00,307.0,305.0,4.48,5.62,,47.59359,-54.27349
2019-02-19 02:30:00+00:00,309.0,301.0,3.65,5.54,,47.59359,-54.27349
2019-02-19 02:40:00+00:00,232.0,245.0,3.3,5.3,,47.59359,-54.27349
2019-02-19 02:50:00+00:00,235.0,224.0,3.59,6.31,,47.59359,-54.27349
2019-02-19 03:00:00+00:00,270.0,270.0,3.71,4.36,,47.59359,-54.27349
2019-02-19 03:10:00+00:00,311.0,312.0,5.68,6.44,,47.59359,-54.27349
2019-02-19 03:20:00+00:00,316.0,320.0,6.62,7.74,,47.59359,-54.27349
2019-02-19 03:30:00+00:00,314.0,319.0,5.75,6.57,,47.59359,-54.27349
2019-02-19 03:40:00+00:00,305.0,308.0,5.04,5.88,,47.59359,-54.27349
2019-02-19 03:50:00+00:00,306.0,307.0,5.22,5.94,,47.59359,-54.27349
2019-02-19 04:00:00+00:00,312.0,306.0,5.52,6.97,,47.59359,-54.27349
2019-02-19 04:10:00+00:00,339.0,347.0,4.66,6.02,,47.59359,-54.27349
2019-02-19 04:20:00+00:00,347.0,351.0,4.87,5.72,,47.59359,-54.27349
2019-02-19 04:30:00+00:00,349.0,1.0,4.02,4.9,,47.59359,-54.27349
2019-02-19 04:40:00+00:00,321.0,320.0,4.51,5.36,,47.59359,-54.27349
2019-02-19 04:50:00+00:00,335.0,352.0,4.5,5.41,,47.59359,-54.27349
2019-02-19 05:00:00+00:00,345.0,344.0,4.95,5.74,,47.59359,-54.27349
2019-02-19 05:10:00+00:00,329.0,330.0,4.87,5.65,,47.59359,-54.27349
2019-02-19 05:20:00+00:00,329.0,322.0,4.91,5.44,,47.59359,-54.27349
2019-02-19 05:30:00+00:00,348.0,343.0,4.03,5.38,,47.59359,-54.27349
2019-02-19 05:40:00+00:00,328.0,323.0,4.62,5.82,,47.59359,-54.27349
2019-02-19 05:50:00+00:00,332.0,334.0,5.68,6.54,,47.59359,-54.27349
2019-02-19 06:00:00+00:00,333.0,322.0,5.22,6.0,,47.59359,-54.27349
2019-02-19 06:10:00+00:00,342.0,345.0,5.32,6.26,,47.59359,-54.27349
2019-02-19 06:20:00+00:00,343.0,330.0,5.06,6.93,,47.59359,-54.27349
2019-02-19 06:30:00+00:00,348.0,338.0,5.24,6.49,,47.59359,-54.27349
2019-02-19 06:40:00+00:00,339.0,353.0,3.65,5.74,,47.59359,-54.27349
2019-02-19 06:50:00+00:00,343.0,344.0,3.98,7.28,,47.59359,-54.27349
2019-02-19 07:00:00+00:00,353.0,351.0,8.0,10.25,,47.59359,-54.27349
2019-02-19 07:10:00+00:00,2.0,1.0,6.75,10.42,,47.59359,-54.27349
2019-02-19 07:20:00+00:00,2.0,351.0,8.09,10.1,,47.59359,-54.27349
2019-02-19 07:30:00+00:00,8.0,5.0,9.7,10.91,,47.59359,-54.27349
2019-02-19 07:40:00+00:00,8.0,11.0,9.05,11.14,,47.59359,-54.27349
2019-02-19 07:50:00+00:00,13.0,17.0,6.75,10.17,,47.59359,-54.27349
2019-02-19 08:00:00+00:00,8.0,13.0,9.66,11.57,,47.59359,-54.27349
2019-02-19 08:10:00+00:00,17.0,3.0,5.2,9.88,,47.59359,-54.27349
2019-02-19 08:20:00+00:00,27.0,18.0,4.79,8.2,,47.59359,-54.27349
2019-02-19 08:30:00+00:00,13.0,6.0,3.26,6.39,,47.59359,-54.27349
2019-02-19 08:40:00+00:00,9.0,4.0,3.46,5.63,,47.59359,-54.27349
2019-02-19 08:50:00+00:00,350.0,344.0,4.81,5.79,,47.59359,-54.27349
2019-02-19 09:00:00+00:00,11.0,15.0,4.65,5.88,,47.59359,-54.27349
2019-02-19 09:10:00+00:00,353.0,349.0,4.3,5.85,,47.59359,-54.27349
2019-02-19 09:20:00+00:00,10.0,6.0,4.99,5.86,,47.59359,-54.27349
2019-02-19 09:30:00+00:00,355.0,345.0,3.38,6.3,,47.59359,-54.27349
2019-02-19 09:40:00+00:00,0.0,1.0,4.87,5.87,,47.59359,-54.27349
2019-02-19 09:50:00+00:00,22.0,14.0,4.03,6.16,,47.59359,-54.27349
2019-02-19 10:00:00+00:00,21.0,21.0,4.93,6.5,,47.59359,-54.27349
2019-02-19 10:10:00+00:00,344.0,343.0,5.29,6.06,,47.59359,-54.27349
2019-02-19 10:20:00+00:00,357.0,351.0,4.58,6.84,,47.59359,-54.27349
2019-02-19 10:30:00+00:00,351.0,357.0,4.22,6.26,,47.59359,-54.27349
2019-02-19 10:40:00+00:00,357.0,2.0,4.85,8.61,,47.59359,-54.27349
2019-02-19 10:50:00+00:00,356.0,357.0,6.99,10.12,,47.59359,-54.27349
2019-02-19 11:00:00+00:00,1.0,357.0,6.62,9.32,,47.59359,-54.27349
2019-02-19 11:10:00+00:00,30.0,23.0,7.91,10.06,,47.59359,-54.27349
2019-02-19 11:20:00+00:00,17.0,11.0,6.75,9.37,,47.59359,-54.27349
2019-02-19 11:30:00+00:00,8.0,12.0,6.73,8.55,,47.59359,-54.27349
2019-02-19 11:40:00+00:00,10.0,7.0,7.63,9.17,,47.59359,-54.27349
2019-02-19 11:50:00+00:00,0.0,358.0,6.26,7.53,,47.59359,-54.27349
2019-02-19 12:00:00+00:00,17.0,30.0,5.66,7.37,,47.59359,-54.27349
2019-02-19 12:10:00+00:00,353.0,357.0,7.86,8.95,,47.59359,-54.27349
2019-02-19 12:20:00+00:00,13.0,12.0,6.35,7.69,,47.59359,-54.27349
2019-02-19 12:30:00+00:00,5.0,6.0,5.71,7.04,,47.59359,-54.27349
2019-02-19 12:40:00+00:00,347.0,359.0,6.68,7.71,,47.59359,-54.27349
2019-02-19 12:50:00+00:00,342.0,344.0,8.02,9.1,,47.59359,-54.27349
2019-02-19 13:00:00+00:00,346.0,348.0,6.61,7.99,,47.59359,-54.27349
2019-02-19 13:10:00+00:00,347.0,345.0,5.24,6.29,,47.59359,-54.27349
2019-02-19 13:20:00+00:00,2.0,354.0,6.33,7.25,,47.59359,-54.27349
2019-02-19 13:30:00+00:00,343.0,343.0,8.71,9.95,,47.59359,-54.27349
2019-02-19 13:40:00+00:00,355.0,355.0,8.82,10.01,,47.59359,-54.27349
2019-02-19 13:50:00+00:00,344.0,340.0,8.5,10.99,,47.59359,-54.27349
2019-02-19 14:00:00+00:00,342.0,356.0,8.87,11.13,,47.59359,-54.27349
2019-02-19 14:10:00+00:00,348.0,348.0,10.57,12.23,,47.59359,-54.27349
2019-02-19 14:20:00+00:00,351.0,352.0,10.0,11.93,,47.59359,-54.27349
2019-02-19 14:30:00+00:00,357.0,356.0,11.76,13.57,,47.59359,-54.27349
2019-02-19 14:40:00+00:00,353.0,357.0,8.76,10.08,,47.59359,-54.27349
2019-02-19 14:50:00+00:00,351.0,348.0,11.09,12.6,,47.59359,-54.27349
2019-02-19 15:00:00+00:00,348.0,351.0,10.83,12.96,,47.59359,-54.27349
2019-02-19 15:10:00+00:00,357.0,355.0,10.31,11.94,,47.59359,-54.27349
2019-02-19 15:20:00+00:00,342.0,343.0,10.95,12.46,,47.59359,-54.27349
2019-02-19 15:30:00+00:00,354.0,354.0,9.81,11.27,,47.59359,-54.27349
2019-02-19 15:40:00+00:00,334.0,330.0,8.43,9.57,,47.59359,-54.27349
2019-02-19 15:50:00+00:00,326.0,325.0,9.53,10.69,,47.59359,-54.27349
2019-02-19 16:00:00+00:00,350.0,347.0,10.25,11.44,,47.59359,-54.27349
2019-02-19 16:10:00+00:00,327.0,326.0,10.3,12.34,,47.59359,-54.27349
2019-02-19 16:20:00+00:00,343.0,341.0,9.06,10.67,,47.59359,-54.27349
2019-02-19 16:30:00+00:00,334.0,336.0,8.77,10.31,,47.59359,-54.27349
2019-02-19 16:40:00+00:00,335.0,332.0,8.23,9.28,,47.59359,-54.27349
2019-02-19 16:50:00+00:00,313.0,312.0,6.98,7.85,,47.59359,-54.27349
2019-02-19 17:00:00+00:00,320.0,321.0,6.07,7.32,,47.59359,-54.27349
2019-02-19 17:10:00+00:00,316.0,320.0,9.16,10.87,,47.59359,-54.27349
2019-02-19 17:20:00+00:00,315.0,308.0,8.18,10.57,,47.59359,-54.27349
2019-02-19 17:30:00+00:00,316.0,317.0,9.79,10.76,,47.59359,-54.27349
2019-02-19 17:40:00+00:00,315.0,314.0,9.89,11.65,,47.59359,-54.27349
2019-02-19 17:50:00+00:00,313.0,317.0,7.91,9.57,,47.59359,-54.27349
2019-02-19 18:00:00+00:00,305.0,305.0,8.69,9.87,,47.59359,-54.27349
2019-02-19 18:10:00+00:00,315.0,308.0,9.57,12.03,,47.59359,-54.27349
2019-02-19 18:20:00+00:00,307.0,308.0,10.9,12.18,,47.59359,-54.27349
2019-02-19 18:30:00+00:00,303.0,306.0,9.46,11.87,,47.59359,-54.27349
2019-02-19 18:40:00+00:00,318.0,317.0,10.07,11.56,,47.59359,-54.27349
2019-02-19 18:50:00+00:00,322.0,322.0,7.79,9.0,,47.59359,-54.27349
2019-02-19 19:00:00+00:00,315.0,318.0,8.83,9.53,,47.59359,-54.27349
2019-02-19 19:10:00+00:00,302.0,300.0,7.23,9.06,,47.59359,-54.27349
2019-02-19 19:20:00+00:00,323.0,320.0,8.64,10.16,,47.59359,-54.27349
2019-02-19 19:30:00+00:00,310.0,314.0,7.2,8.32,,47.59359,-54.27349
2019-02-19 19:40:00+00:00,311.0,319.0,7.4,8.81,,47.59359,-54.27349
2019-02-19 19:50:00+00:00,310.0,311.0,6.52,7.68,,47.59359,-54.27349
2019-02-19 20:00:00+00:00,320.0,317.0,7.29,8.8,,47.59359,-54.27349
2019-02-19 20:10:00+00:00,333.0,332.0,5.76,7.51,,47.59359,-54.27349
2019-02-19 20:20:00+00:00,343.0,341.0,6.67,7.62,,47.59359,-54.27349
2019-02-19 20:30:00+00:00,356.0,358.0,6.47,7.32,,47.59359,-54.27349
2019-02-19 20:40:00+00:00,357.0,356.0,5.81,6.56,,47.59359,-54.27349
2019-02-19 20:50:00+00:00,350.0,350.0,5.71,6.11,,47.59359,-54.27349
2019-02-19 21:00:00+00:00,356.0,349.0,5.1,6.05,,47.59359,-54.27349
2019-02-19 21:10:00+00:00,355.0,351.0,5.71,6.57,,47.59359,-54.27349
2019-02-19 21:20:00+00:00,343.0,318.0,4.07,5.75,,47.59359,-54.27349
2019-02-19 21:30:00+00:00,333.0,330.0,5.93,7.26,,47.59359,-54.27349
2019-02-19 21:40:00+00:00,325.0,323.0,7.97,8.87,,47.59359,-54.27349
2019-02-19 21:50:00+00:00,320.0,320.0,8.08,8.97,,47.59359,-54.27349
2019-02-19 22:00:00+00:00,324.0,328.0,7.38,8.47,,47.59359,-54.27349
2019-02-19 22:10:00+00:00,317.0,319.0,10.92,12.54,,47.59359,-54.27349
2019-02-19 22:20:00+00:00,316.0,320.0,11.15,12.3,,47.59359,-54.27349
2019-02-19 22:30:00+00:00,313.0,320.0,10.91,12.01,,47.59359,-54.27349
2019-02-19 22:40:00+00:00,316.0,315.0,11.21,12.54,,47.59359,-54.27349
2019-02-19 22:50:00+00:00,319.0,324.0,11.37,13.49,,47.59359,-54.27349
2019-02-19 23:00:00+00:00,315.0,319.0,9.97,12.16,,47.59359,-54.27349
2019-02-19 23:10:00+00:00,313.0,317.0,9.71,11.86,,47.59359,-54.27349
2019-02-19 23:20:00+00:00,314.0,323.0,8.83,10.97,,47.59359,-54.27349
2019-02-19 23:30:00+00:00,322.0,328.0,10.23,12.65,,47.59359,-54.27349
2019-02-19 23:40:00+00:00,323.0,330.0,8.53,10.26,,47.59359,-54.27349
2019-02-19 23:50:00+00:00,327.0,326.0,10.92,12.32,,47.59359,-54.27349
